Location: STAR School
(35.3054°N, 111.2976°W)
Time: 00:15:26
(UTC-07:00)

Vanguard 1 - Pass Details

Date: 22 October 2019
Orbit: 652 x 3831 km, 34.2° (Epoch: 21 November)

Event Time Altitude Azimuth Distance (km) Brightness Sun altitude
Rises 20:53:14 0° 272° (W) 4,223 14.2 -39.6°
Reaches altitude 10° 20:55:32 10° 271° (W) 3,526 13.5 -40.0°
Enters shadow 21:04:42 84° 218° (SW) 2,129 11.4 -41.8°
